NORTHERN NASSAU  -  Heat Advisory Heat Advisory        NORTHERN QUEENS  -  Heat Advisory Heat Advisory        SOUTHERN NASSAU  -  Heat Advisory Heat Advisory        SOUTHERN QUEENS  -  Heat Advisory Heat Advisory      

Active alerts

Northern Queens
  Details for Northern Queens Heat Advisory
Southern Queens
  Details for Southern Queens Heat Advisory
Northern Nassau
  Details for Northern Nassau Heat Advisory
Southern Nassau
  Details for Southern Nassau Heat Advisory


WXM80 ListenWXM80 Stop

You find our weather info also at:

UK Metoffice

WeatherCloud

Weather Underground

Northeastern Weather Network

AWEKAS

Citizen Weather Observer Program (CWOP)

HAMweather, WeatherForYou, PWS Weather


Weather Underground History page Text

Daily Summary for January 14, 2018 Units:  Metric    English   Both
« Previous Day
Next Day »
Daily Weekly Monthly Yearly Custom
  High: Low: Average:
Temperature: -17.8 °C -8.9 °C -6.8 °C
Dew Point: -17.8 °C -16.1 °C -14.2 °C
Humidity: Humidity % 40 % 56 %
Wind Speed: 0 km/h 4.5 km/h 10.6 km/h
Wind Gust: 0 km/h - -
Wind:- - South
Pressure: 0 hPa 1020.9 hPa -
Precipitation: 0 mm    
Historical Graphs
 
 
Tabular Data for January 14, 2018
Time Temperature Dew Point Pressure Wind Wind Speed Wind Gust Humidity Rainfall Rate (Hourly)
-17.8 °C -17.8 °C 0 hPa Calm     Humidity % 0 mm
00:02 -6.3 °C -13.4 °C 1020.9 hPa North 10.3 km/h 22.2 km/h 57 % 0 mm
00:08 -6.3 °C -13.4 °C 1020.9 hPa North 7.2 km/h 14.8 km/h 57 % 0 mm
00:16 -6.3 °C -13.4 °C 1020.9 hPa NNW 15.4 km/h 24.1 km/h 57 % 0 mm
00:21 -6.4 °C -13.6 °C 1020.9 hPa NNW 8 km/h 14.8 km/h 57 % 0 mm
00:26 -6.4 °C -13.8 °C 1020.9 hPa NNW 8.2 km/h 22.2 km/h 56 % 0 mm
00:31 -6.5 °C -13.6 °C 1020.9 hPa NNW 8.4 km/h 14.5 km/h 57 % 0 mm
00:38 -6.6 °C -13.7 °C 1020.9 hPa NNW 17.1 km/h 19.3 km/h 57 % 0 mm
00:43 -6.6 °C -13.7 °C 1020.9 hPa NNW 10.3 km/h 13 km/h 57 % 0 mm
00:50 -6.7 °C -14 °C 1021.2 hPa NW 11.4 km/h 16.7 km/h 56 % 0 mm
00:56 -6.7 °C -14.1 °C 1021.2 hPa NNW 8.7 km/h 14.8 km/h 56 % 0 mm
01:05 -6.8 °C -14.3 °C 1021.6 hPa NNW 8.9 km/h 18.5 km/h 55 % 0 mm
01:16 -6.9 °C -14.4 °C 1021.6 hPa NNW 11.3 km/h 22.5 km/h 55 % 0 mm
01:24 -7 °C -14.1 °C 1021.9 hPa NNW 12.2 km/h 17.7 km/h 57 % 0 mm
01:30 -7 °C -14.1 °C 1021.9 hPa North 11.3 km/h 14.8 km/h 57 % 0 mm
01:39 -7.1 °C -14.2 °C 1022.2 hPa NNW 10.3 km/h 16.7 km/h 57 % 0 mm
01:45 -7.1 °C -14.2 °C 1022.2 hPa North 7.6 km/h 20.4 km/h 57 % 0 mm
02:05 -7.2 °C -14.3 °C 1022.6 hPa NNW 11.7 km/h 20.4 km/h 57 % 0 mm
02:16 -7.3 °C -14.4 °C 1022.9 hPa NW 7.6 km/h 14.8 km/h 57 % 0 mm
02:24 -7.4 °C -14.2 °C 1022.6 hPa North 9.2 km/h 13 km/h 58 % 0 mm
02:32 -7.4 °C -13.9 °C 1022.9 hPa North 8 km/h 14.8 km/h 60 % 0 mm
02:39 -7.5 °C -14.3 °C 1022.9 hPa North 11.3 km/h 18.5 km/h 58 % 0 mm
02:47 -7.6 °C -14.2 °C 1023.2 hPa NW 12.9 km/h 22.2 km/h 59 % 0 mm
02:54 -7.6 °C -14.7 °C 1023.2 hPa North 12.9 km/h 19.3 km/h 57 % 0 mm
02:59 -7.7 °C -14.3 °C 1023.2 hPa North 10 km/h 18.5 km/h 59 % 0 mm
03:08 -7.7 °C -14.1 °C 1023.2 hPa NNW 8.7 km/h 12.9 km/h 60 % 0 mm
03:14 -7.8 °C -14.4 °C 1022.9 hPa NNW 11.4 km/h 20.4 km/h 59 % 0 mm
03:32 -7.8 °C -14.3 °C 1023.2 hPa NNW 14.5 km/h 31.5 km/h 60 % 0 mm
03:45 -7.8 °C -14.3 °C 1023.2 hPa North 13.2 km/h 24.1 km/h 60 % 0 mm
03:50 -7.9 °C -14.3 °C 1023.2 hPa NNW 12.2 km/h 24.1 km/h 60 % 0 mm
04:00 -7.9 °C -14.3 °C 1023.2 hPa NW 12.9 km/h 22.2 km/h 60 % 0 mm
04:05 -8 °C -14.4 °C 1023.2 hPa North 14.3 km/h 24.1 km/h 60 % 0 mm
04:10 -8.1 °C -14.4 °C 1023.2 hPa NNE 15.6 km/h 24.1 km/h 60 % 0 mm
04:15 -8.1 °C -14.5 °C 1023.2 hPa North 12.6 km/h 20.9 km/h 60 % 0 mm
04:22 -8.2 °C -14.8 °C 1023.2 hPa NE 12.7 km/h 22.2 km/h 59 % 0 mm
04:27 -8.2 °C -14.4 °C 1023.6 hPa North 12.6 km/h 16.1 km/h 61 % 0 mm
04:33 -8.2 °C -14.6 °C 1023.6 hPa NNW 11.4 km/h 22.2 km/h 60 % 0 mm
04:38 -8.2 °C -14.2 °C 1023.6 hPa North 9 km/h 14.8 km/h 62 % 0 mm
04:50 -8.2 °C -14.2 °C 1023.6 hPa North 9.2 km/h 19.3 km/h 62 % 0 mm
05:04 -8.3 °C -14.7 °C 1023.6 hPa NNW 11.4 km/h 16.1 km/h 60 % 0 mm
05:11 -8.3 °C -14.7 °C 1023.9 hPa NNW 8.9 km/h 14.8 km/h 60 % 0 mm
05:16 -8.4 °C -14.6 °C 1024.3 hPa NNE 8.4 km/h 16.7 km/h 61 % 0 mm
05:24 -8.4 °C -14.8 °C 1024.3 hPa WNW 9.7 km/h 18.5 km/h 60 % 0 mm
05:29 -8.3 °C -14.7 °C 1024.3 hPa NNE 8.4 km/h 14.8 km/h 60 % 0 mm
05:37 -8.3 °C -14.7 °C 1024.3 hPa NW 11.6 km/h 22.2 km/h 60 % 0 mm
05:43 -8.4 °C -15.2 °C 1024.6 hPa NNW 9.2 km/h 16.7 km/h 58 % 0 mm
05:49 -8.4 °C -15 °C 1024.6 hPa NW 7.4 km/h 14.8 km/h 59 % 0 mm
05:57 -8.4 °C -15.2 °C 1024.9 hPa NNW 9 km/h 11.1 km/h 58 % 0 mm
06:03 -8.3 °C -15.2 °C 1024.9 hPa NNW 10.6 km/h 20.4 km/h 58 % 0 mm
06:11 -8.4 °C -15.2 °C 1025.3 hPa NNW 12.7 km/h 20.4 km/h 58 % 0 mm
06:18 -8.4 °C -15.4 °C 1025.6 hPa North 11.6 km/h 16.7 km/h 57 % 0 mm
06:24 -8.4 °C -15.4 °C 1025.6 hPa NNW 11.3 km/h 16.7 km/h 57 % 0 mm
06:34 -8.4 °C -15.7 °C 1025.6 hPa NNE 6.4 km/h 11.1 km/h 56 % 0 mm
06:48 -8.4 °C -15.2 °C 1026 hPa NNE 4.7 km/h 14.8 km/h 58 % 0 mm
06:56 -8.4 °C -15.4 °C 1026 hPa NNE 12.2 km/h 18.5 km/h 57 % 0 mm
07:01 -8.4 °C -15.7 °C 1026.3 hPa NNE 10.5 km/h 16.7 km/h 56 % 0 mm
07:06 -8.4 °C -15.9 °C 1026.3 hPa NNE 7.1 km/h 20.4 km/h 55 % 0 mm
07:18 -8.5 °C -15.7 °C 1026.3 hPa NNE 12.1 km/h 18.5 km/h 56 % 0 mm
07:28 -8.5 °C -15.7 °C 1026.6 hPa NNE 7.4 km/h 11.1 km/h 56 % 0 mm
07:51 -8.3 °C -15.6 °C 1027 hPa North 15.3 km/h 20.4 km/h 56 % 0 mm
07:56 -8.3 °C -15.3 °C 1027 hPa North 10 km/h 22.2 km/h 57 % 0 mm
08:01 -8.3 °C -15.7 °C 1027 hPa NNE 12.2 km/h 22.5 km/h 55 % 0 mm
08:10 -8.4 °C -15.8 °C 1027.3 hPa NNW 16.4 km/h 24.1 km/h 55 % 0 mm
08:23 -8.7 °C -16.1 °C 1027.7 hPa NNE 10 km/h 14.8 km/h 55 % 0 mm
08:29 -8.8 °C -16 °C 1027.7 hPa NNE 12.1 km/h 17.7 km/h 56 % 0 mm
08:35 -8.8 °C -16.1 °C 1028 hPa NNE 10.6 km/h 16.7 km/h 56 % 0 mm
08:45 -8.9 °C -15.9 °C 1028 hPa North 11.1 km/h 14.8 km/h 57 % 0 mm
08:52 -8.9 °C -16.1 °C 1028.3 hPa North 8.7 km/h 18.5 km/h 56 % 0 mm
09:01 -8.8 °C -16.1 °C 1028 hPa North 7.9 km/h 14.8 km/h 56 % 0 mm
09:15 -8.4 °C -15.2 °C 1028.7 hPa North 6.6 km/h 18.5 km/h 58 % 0 mm
09:26 -8.2 °C -15.4 °C 1028.7 hPa North 4.8 km/h 11.3 km/h 56 % 0 mm
09:35 -7.9 °C -15.6 °C 1028.7 hPa North 9.7 km/h 24.1 km/h 54 % 0 mm
09:41 -7.8 °C -15.7 °C 1029 hPa North 8.4 km/h 14.5 km/h 53 % 0 mm
09:52 -7.4 °C -15.2 °C 1029.3 hPa North 8.7 km/h 12.9 km/h 54 % 0 mm
10:06 -7.1 °C -15.1 °C 1029.3 hPa NNW 7.7 km/h 11.1 km/h 53 % 0 mm
10:26 -6.7 °C -15.6 °C 1029.3 hPa NNW 6 km/h 13 km/h 49 % 0 mm
10:31 -6.5 °C -15.4 °C 1029 hPa North 7.2 km/h 13 km/h 49 % 0 mm
10:39 -6.4 °C -15.6 °C 1029 hPa NW 9.5 km/h 9.5 km/h 48 % 0 mm
10:45 -6.3 °C -15.6 °C 1029 hPa NNW 7.7 km/h 16.7 km/h 48 % 0 mm
10:53 -6.1 °C -14.9 °C 1029 hPa NNW 5 km/h 7.4 km/h 50 % 0 mm
10:58 -5.9 °C -14.9 °C 1028.7 hPa NNE 8.4 km/h 12.9 km/h 49 % 0 mm
11:04 -5.7 °C -15 °C 1028.7 hPa North 5.5 km/h 11.1 km/h 48 % 0 mm
11:10 -5.7 °C -14.9 °C 1028.7 hPa NNE 10.1 km/h 18.5 km/h 48 % 0 mm
11:15 -5.7 °C -15.3 °C 1028.7 hPa NNW 11.1 km/h 18.5 km/h 47 % 0 mm
11:20 -5.8 °C -15.6 °C 1028.3 hPa NNE 7.4 km/h 9.7 km/h 46 % 0 mm
11:28 -5.8 °C -15.1 °C 1028.3 hPa North 14.2 km/h 19.3 km/h 48 % 0 mm
11:33 -5.8 °C -15.1 °C 1028.3 hPa North 8.9 km/h 19.3 km/h 48 % 0 mm
11:43 -5.8 °C -15.3 °C 1028.3 hPa North 7.7 km/h 18.5 km/h 47 % 0 mm
11:54 -5.8 °C -15.8 °C 1028 hPa North 12.1 km/h 16.7 km/h 45 % 0 mm
11:59 -5.8 °C -15.3 °C 1028.3 hPa North 11.6 km/h 19.3 km/h 47 % 0 mm
12:07 -5.7 °C -15.8 °C 1028 hPa North 6.8 km/h 20.4 km/h 45 % 0 mm
12:12 -5.7 °C -15.7 °C 1028 hPa North 11.7 km/h 20.4 km/h 45 % 0 mm
12:17 -5.5 °C -15.1 °C 1028 hPa North 10.6 km/h 16.7 km/h 47 % 0 mm
12:24 -5.3 °C -15.1 °C 1028 hPa NNE 4.5 km/h 11.1 km/h 46 % 0 mm
12:29 -5.1 °C -14.9 °C 1028 hPa NNE 8.5 km/h 14.8 km/h 46 % 0 mm
12:58 -4.4 °C -15.1 °C 1027.7 hPa North 11.6 km/h 16.7 km/h 43 % 0 mm
13:03 -4.3 °C -15 °C 1027.7 hPa North 10.6 km/h 16.7 km/h 43 % 0 mm
13:20 -4.1 °C -14.8 °C 1027.3 hPa NNE 10.9 km/h 14.8 km/h 43 % 0 mm
13:38 -3.7 °C -14.2 °C 1027.3 hPa NNE 8.2 km/h 17.7 km/h 44 % 0 mm
13:45 -3.7 °C -15.1 °C 1027.3 hPa NNE 12.9 km/h 22.2 km/h 41 % 0 mm
13:51 -3.7 °C -14.4 °C 1027.3 hPa NE 16.1 km/h 22.2 km/h 43 % 0 mm
13:58 -3.6 °C -14.9 °C 1027.3 hPa NNE 12.6 km/h 16.7 km/h 41 % 0 mm
14:11 -3.6 °C -15.2 °C 1027.7 hPa North 13.4 km/h 16.7 km/h 40 % 0 mm
14:17 -3.5 °C -15.2 °C 1027.7 hPa NNE 14 km/h 24.1 km/h 40 % 0 mm
14:24 -3.6 °C -15 °C 1027.7 hPa NNW 10.9 km/h 22.2 km/h 41 % 0 mm
14:29 -3.8 °C -15.1 °C 1027.7 hPa NNE 13.2 km/h 18.5 km/h 41 % 0 mm
14:38 -3.8 °C -14.6 °C 1027.7 hPa NE 12.2 km/h 16.1 km/h 43 % 0 mm
14:43 -3.9 °C -14.7 °C 1027.7 hPa North 10.9 km/h 18.5 km/h 43 % 0 mm
14:57 -4.2 °C -14.9 °C 1027.7 hPa NNE 12.2 km/h 18.5 km/h 43 % 0 mm
15:03 -4.2 °C -14.9 °C 1028 hPa North 10.3 km/h 16.7 km/h 43 % 0 mm
15:22 -4.3 °C -15.1 °C 1028 hPa NNW 13.2 km/h 24.1 km/h 43 % 0 mm
15:31 -4.4 °C -15.1 °C 1028 hPa North 11.6 km/h 17.7 km/h 43 % 0 mm
15:40 -4.4 °C -14.8 °C 1028 hPa NNW 11.1 km/h 14.8 km/h 44 % 0 mm
15:49 -4.4 °C -14.9 °C 1028.3 hPa North 11.4 km/h 16.7 km/h 44 % 0 mm
15:55 -4.5 °C -14.7 °C 1028.3 hPa North 8.4 km/h 11.1 km/h 45 % 0 mm
16:14 -4.7 °C -15.7 °C 1028.3 hPa North 15 km/h 24.1 km/h 42 % 0 mm
16:24 -4.8 °C -15.5 °C 1028.3 hPa NNE 11.4 km/h 20.4 km/h 43 % 0 mm
16:29 -4.9 °C -15.3 °C 1028.3 hPa NNE 13.5 km/h 25.9 km/h 44 % 0 mm
16:34 -4.9 °C -15.3 °C 1028.7 hPa NNE 12.1 km/h 18.5 km/h 44 % 0 mm
16:43 -5 °C -15.1 °C 1028.7 hPa NNW 11.3 km/h 14.8 km/h 45 % 0 mm
16:56 -5.2 °C -15.3 °C 1028.7 hPa North 9.3 km/h 16.7 km/h 45 % 0 mm
17:08 -5.3 °C -15.2 °C 1029 hPa NNE 10.8 km/h 18.5 km/h 46 % 0 mm
17:13 -5.3 °C -14.7 °C 1029 hPa NE 6.9 km/h 14.8 km/h 48 % 0 mm
17:22 -5.4 °C -14.4 °C 1029 hPa NNW 9.2 km/h 19.3 km/h 49 % 0 mm
17:28 -5.4 °C -14.5 °C 1029 hPa North 12.2 km/h 20.9 km/h 49 % 0 mm
17:33 -5.5 °C -14.6 °C 1029 hPa NNE 13.4 km/h 16.7 km/h 49 % 0 mm
17:39 -5.6 °C -14.3 °C 1029.3 hPa North 9.3 km/h 11.1 km/h 50 % 0 mm
17:51 -5.7 °C -14.2 °C 1029.3 hPa NE 11.6 km/h 19.3 km/h 51 % 0 mm
18:00 -5.8 °C -14.1 °C 1029.3 hPa NNE 13.2 km/h 18.5 km/h 52 % 0 mm
18:05 -5.8 °C -13.9 °C 1029.3 hPa NE 12.7 km/h 18.5 km/h 53 % 0 mm
18:12 -5.9 °C -14 °C 1029.3 hPa NNE 13.5 km/h 20.4 km/h 53 % 0 mm
18:24 -6.1 °C -13.4 °C 1029.7 hPa NNE 9.7 km/h 18.5 km/h 56 % 0 mm
18:30 -6.2 °C -13.8 °C 1029.7 hPa NNE 10.8 km/h 18.5 km/h 55 % 0 mm
18:40 -6.4 °C -13.7 °C 1029.7 hPa NNW 7.6 km/h 16.7 km/h 56 % 0 mm
18:50 -6.5 °C -13.6 °C 1030 hPa NNE 14.8 km/h 22.2 km/h 57 % 0 mm
18:57 -6.6 °C -13.3 °C 1030 hPa North 11.1 km/h 16.7 km/h 59 % 0 mm
19:06 -6.7 °C -12.9 °C 1030 hPa North 10.5 km/h 20.4 km/h 61 % 0 mm
19:13 -6.7 °C -12.7 °C 1030 hPa North 11.1 km/h 16.7 km/h 62 % 0 mm
19:18 -6.7 °C -12.6 °C 1030 hPa NW 10.6 km/h 18.5 km/h 63 % 0 mm
19:24 -6.7 °C -12.6 °C 1030.4 hPa NNE 10.9 km/h 13 km/h 63 % 0 mm
19:32 -6.8 °C -12.7 °C 1030.4 hPa NNE 18.2 km/h 27.8 km/h 63 % 0 mm
19:39 -6.8 °C -12.5 °C 1030 hPa North 12.1 km/h 16.7 km/h 64 % 0 mm
19:48 -6.9 °C -12.4 °C 1030 hPa North 13 km/h 24.1 km/h 65 % 0 mm
19:56 -6.9 °C -12.2 °C 1030 hPa NE 10.9 km/h 22.5 km/h 66 % 0 mm
20:01 -6.9 °C -12.2 °C 1030 hPa NNE 13.5 km/h 16.7 km/h 66 % 0 mm
20:19 -7.1 °C -11.9 °C 1030 hPa NNE 16.1 km/h 27.8 km/h 68 % 0 mm
20:30 -7.2 °C -11.9 °C 1030 hPa North 14.8 km/h 27.4 km/h 69 % 0 mm
20:39 -7.2 °C -11.9 °C 1030 hPa NNE 14.6 km/h 22.2 km/h 69 % 0 mm
20:44 -7.2 °C -11.7 °C 1030 hPa NNE 14.2 km/h 24.1 km/h 70 % 0 mm
20:53 -7.2 °C -11.8 °C 1030 hPa NNE 11.1 km/h 20.4 km/h 70 % 0 mm
21:02 -7.2 °C -11.8 °C 1030 hPa NNW 14.8 km/h 20.9 km/h 70 % 0 mm
21:07 -7.3 °C -11.8 °C 1029.7 hPa NNE 10.9 km/h 13 km/h 70 % 0 mm
21:16 -7.3 °C -11.7 °C 1029.7 hPa NNE 9.7 km/h 19.3 km/h 71 % 0 mm
21:21 -7.3 °C -11.7 °C 1030 hPa NE 15.3 km/h 20.4 km/h 71 % 0 mm
21:29 -7.3 °C -11.7 °C 1030 hPa NNE 14.3 km/h 20.4 km/h 71 % 0 mm
21:39 -7.3 °C -11.9 °C 1030.7 hPa North 12.4 km/h 16.7 km/h 70 % 0 mm
21:44 -7.3 °C -11.9 °C 1030.4 hPa NNE 7.2 km/h 14.8 km/h 70 % 0 mm
21:59 -7.3 °C -11.7 °C 1030.4 hPa NE 14.2 km/h 20.9 km/h 71 % 0 mm
22:13 -7.3 °C -11.7 °C 1031 hPa ENE 9.3 km/h 14.5 km/h 71 % 0 mm
22:30 -7.3 °C -11.7 °C 1031 hPa NNE 7.7 km/h 11.1 km/h 71 % 0 mm
22:35 -7.3 °C -11.8 °C 1031.4 hPa NNE 5.5 km/h 9.3 km/h 70 % 0 mm
22:41 -7.2 °C -11.8 °C 1031 hPa NE 7.2 km/h 16.7 km/h 70 % 0 mm
22:46 -7.2 °C -11.9 °C 1031.4 hPa NE 9.7 km/h 19.3 km/h 69 % 0 mm
22:52 -7.2 °C -11.7 °C 1031 hPa NE 8.4 km/h 14.8 km/h 70 % 0 mm
22:58 -7.1 °C -11.8 °C 1030.7 hPa NE 11.4 km/h 16.1 km/h 69 % 0 mm
23:03 -7.1 °C -11.7 °C 1030.7 hPa NNE 7.1 km/h 14.8 km/h 70 % 0 mm
23:10 -7.1 °C -11.7 °C 1030.4 hPa NE 7.9 km/h 13 km/h 70 % 0 mm
23:15 -7.1 °C -11.8 °C 1030.4 hPa NNE 6.9 km/h 16.7 km/h 69 % 0 mm
23:26 -7.1 °C -11.7 °C 1030.4 hPa NNE 10.6 km/h 31.5 km/h 70 % 0 mm
23:32 -7.1 °C -11.7 °C 1030.4 hPa NE 9 km/h 13 km/h 70 % 0 mm
23:40 -7.1 °C -11.5 °C 1030.4 hPa North 17.1 km/h 25.7 km/h 71 % 0 mm
Crab Meadow Weather
Compliments of Weather Underground - 2.25 mb

Script developed by  Jim McMurry - jmcmurry@mwt.net Adapted for the template by  Wim van der Kuil - Leuven-Template.eu

Astronomy: One year on Pluto is equal to 248 Earth years.